GW1821 Weather Reports


Display with metric or nautical units.
time (UTC)temp
F
wind
direction
speed
MPH
gust
MPH
rain 1hr
in
rain 24hr
in
rain mn
in
humidity
%
barometer
mb
20260507180436 54 53 4.0 12.0 0.00 0.00 0.00 35 1008.8
20260507175929 55 309 4.0 12.0 0.00 0.00 0.00 35 1008.8
20260507175416 55 284 4.0 10.0 0.00 0.00 0.00 40 1009.0
20260507174917 54 229 3.0 9.0 0.00 0.00 0.00 40 1009.0
20260507174408 54 234 3.0 9.0 0.00 0.00 0.00 43 1009.0
20260507173908 54 5 4.0 12.0 0.00 0.00 0.00 36 1009.0
20260507173409 53 286 5.0 12.0 0.00 0.00 0.00 35 1009.2
20260507172907 53 256 4.0 9.0 0.00 0.00 0.00 39 1009.2
20260507172843 53 231 2.0 9.0 0.00 0.00 0.00 39 1009.2
20260507171854 52 336 3.0 9.0 0.00 0.00 0.00 38 1009.3
20260507171350 52 241 3.0 9.0 0.00 0.00 0.00 39 1009.3
20260507170842 52 250 3.0 8.0 0.00 0.00 0.00 38 1009.4
20260507170341 52 335 4.0 11.0 0.00 0.00 0.00 43 1009.4
20260507165836 52 93 4.0 11.0 0.00 0.00 0.00 44 1009.7
20260507165333 51 26 3.0 8.0 0.00 0.00 0.00 40 1009.6
20260507164833 51 173 3.0 8.0 0.00 0.00 0.00 38 1009.5
20260507164330 51 288 3.0 8.0 0.00 0.00 0.00 42 1009.7
20260507163832 51 32 3.0 9.0 0.00 0.00 0.00 38 1009.7
20260507163557 51 314 3.0 9.0 0.00 0.00 0.00 44 1009.8
20260507162822 50 195 4.0 10.0 0.00 0.00 0.00 40 1009.8
20260507162803 50 229 3.0 10.0 0.00 0.00 0.00 42 1009.8
20260507161823 51 315 2.0 8.0 0.00 0.00 0.00 40 1009.9
20260507161324 51 49 3.0 8.0 0.00 0.00 0.00 43 1009.9
20260507161039 50 331 2.0 8.0 0.00 0.00 0.00 43 1010.0
20260507160318 50 213 2.0 8.0 0.00 0.00 0.00 43 1010.0
20260507155818 50 355 3.0 12.0 0.00 0.00 0.00 43 1010.0
20260507155313 49 321 3.0 12.0 0.00 0.00 0.00 48 1010.0
20260507154815 49 235 2.0 8.0 0.00 0.00 0.00 45 1010.0
20260507154309 49 169 4.0 11.0 0.00 0.00 0.00 45 1010.1
20260507153807 49 234 4.0 11.0 0.00 0.00 0.00 45 1010.1
20260507153306 48 280 2.0 10.0 0.00 0.00 0.00 49 1010.0
20260507152802 48 34 4.0 11.0 0.00 0.00 0.00 46 1010.0
20260507152301 48 238 5.0 11.0 0.00 0.00 0.00 48 1010.0
20260507151758 47 293 4.0 9.0 0.00 0.00 0.00 47 1010.0
20260507151257 47 241 4.0 9.0 0.00 0.00 0.00 47 1010.1
20260507150753 47 244 2.0 9.0 0.00 0.00 0.00 48 1010.1
20260507150256 47 239 1.0 4.0 0.00 0.00 0.00 49 1010.1
20260507145755 47 239 2.0 10.0 0.00 0.00 0.00 50 1010.2
20260507145254 46 263 2.0 10.0 0.00 0.00 0.00 52 1010.2
20260507144751 46 223 2.0 7.0 0.00 0.00 0.00 52 1010.2
20260507144523 46 14 1.0 5.0 0.00 0.00 0.00 53 1010.3
20260507144239 45 315 1.0 5.0 0.00 0.00 0.00 52 1010.3
20260507143250 45 277 2.0 7.0 0.00 0.00 0.00 53 1010.3
20260507142743 44 279 2.0 7.0 0.00 0.00 0.00 53 1010.3
20260507142243 44 227 3.0 7.0 0.00 0.00 0.00 56 1010.3
20260507141742 44 240 2.0 7.0 0.00 0.00 0.00 56 1010.3
20260507141501 44 317 2.0 5.0 0.00 0.00 0.00 58 1010.3
20260507140955 43 285 2.0 5.0 0.00 0.00 0.00 60 1010.4
20260507140233 43 284 3.0 8.0 0.00 0.00 0.00 60 1010.4
20260507135728 43 244 3.0 8.0 0.00 0.00 0.00 63 1010.4
20260507135444 42 234 2.0 8.0 0.00 0.00 0.00 65 1010.5
20260507134723 42 243 1.0 8.0 0.00 0.00 0.00 67 1010.5
20260507134224 41 248 2.0 8.0 0.00 0.00 0.00 69 1010.4
20260507133719 41 249 3.0 8.0 0.00 0.00 0.00 70 1010.5
20260507133440 40 266 2.0 7.0 0.00 0.00 0.00 72 1010.5
20260507132657 40 239 2.0 5.0 0.00 0.00 0.00 74 1010.5
20260507132146 39 226 2.0 5.0 0.00 0.00 0.00 75 1010.6
20260507131635 38 234 3.0 6.0 0.00 0.00 0.00 78 1010.5
20260507131122 37 245 2.0 6.0 0.00 0.00 0.00 80 1010.5
20260507130614 36 246 1.0 5.0 0.00 0.00 0.00 82 1010.6
20260507130112 35 246 1.0 5.0 0.00 0.00 0.00 83 1010.5
20260507125604 35 242 1.0 4.0 0.00 0.00 0.00 85 1010.6
20260507125100 34 271 1.0 3.0 0.00 0.00 0.00 85 1010.7
20260507124600 33 271 1.0 3.0 0.00 0.00 0.00 86 1010.7
20260507124055 33 271 1.0 3.0 0.00 0.00 0.00 86 1010.7
20260507123557 33 271 0.0 2.0 0.00 0.00 0.00 87 1010.6
20260507123050 32 271 0.0 2.0 0.00 0.00 0.00 87 1010.6
20260507122553 32 271 0.0 0.0 0.00 0.00 0.00 87 1010.6
20260507122047 31 271 0.0 0.0 0.00 0.00 0.00 87 1010.6
20260507121530 31 271 0.0 0.0 0.00 0.00 0.00 87 1010.6
20260507121025 31 271 0.0 0.0 0.00 0.00 0.00 87 1010.6
20260507120512 31 271 0.0 0.0 0.00 0.00 0.00 86 1010.6
20260507120011 30 271 0.0 0.0 0.00 0.00 0.00 86 1010.6
20260507115511 30 271 0.0 0.0 0.00 0.00 0.00 86 1010.6
20260507115006 30 271 0.0 0.0 0.00 0.00 0.00 86 1010.6
20260507114504 30 271 0.0 0.0 0.00 0.00 0.00 86 1010.7
20260507114003 30 271 0.0 0.0 0.00 0.00 0.00 86 1010.6
20260507113502 30 271 0.0 0.0 0.00 0.00 0.00 85 1010.5
20260507113433 30 271 0.0 0.0 0.00 0.00 0.00 85 1010.5
20260507112448 30 271 0.0 0.0 0.00 0.00 0.00 85 1010.6
20260507112151 30 271 0.0 0.0 0.00 0.00 0.00 85 1010.6
20260507111424 30 271 0.0 0.0 0.00 0.00 0.00 85 1010.6
20260507110922 31 271 0.0 0.0 0.00 0.00 0.00 84 1010.6
20260507110414 31 271 0.0 0.0 0.00 0.00 0.00 84 1010.7
20260507105912 31 271 0.0 0.0 0.00 0.00 0.00 84 1010.7
20260507105410 31 271 0.0 0.0 0.00 0.00 0.00 84 1010.8
20260507104908 31 271 0.0 2.0 0.00 0.00 0.00 84 1010.7
20260507104404 31 271 0.0 4.0 0.00 0.00 0.00 84 1010.6
20260507104109 31 271 0.0 4.0 0.00 0.00 0.00 83 1010.7
20260507103832 32 271 1.0 4.0 0.00 0.00 0.00 84 1010.6
20260507102832 32 271 1.0 4.0 0.00 0.00 0.00 84 1010.6
20260507102323 32 260 0.0 2.0 0.00 0.00 0.00 84 1010.7
20260507102040 32 252 0.0 0.0 0.00 0.00 0.00 84 1010.6
20260507101309 32 252 0.0 1.0 0.00 0.00 0.00 84 1010.6
20260507100807 32 252 0.0 1.0 0.00 0.00 0.00 84 1010.6
20260507100308 32 252 0.0 0.0 0.00 0.00 0.00 84 1010.6
20260507095805 32 252 0.0 1.0 0.00 0.00 0.00 84 1010.5
20260507095308 32 252 0.0 1.0 0.00 0.00 0.00 84 1010.6
20260507094748 32 252 0.0 0.0 0.00 0.00 0.00 84 1010.6
20260507094732 32 252 0.0 0.0 0.00 0.00 0.00 84 1010.6
20260507093718 32 252 0.0 0.0 0.00 0.00 0.00 83 1010.6
20260507093211 32 252 0.0 0.0 0.00 0.00 0.00 84 1010.6
20260507092710 32 252 0.0 0.0 0.00 0.00 0.00 84 1010.7
20260507092200 31 252 0.0 0.0 0.00 0.00 0.00 83 1010.6
20260507091657 31 252 0.0 0.0 0.00 0.00 0.00 83 1010.7
20260507091136 31 252 0.0 0.0 0.00 0.00 0.00 83 1010.7
20260507090622 31 252 0.0 0.0 0.00 0.00 0.00 83 1010.7
20260507090104 31 252 0.0 0.0 0.00 0.00 0.00 83 1010.7
20260507085546 31 252 0.0 0.0 0.00 0.00 0.00 82 1010.7
20260507085311 31 252 0.0 1.0 0.00 0.00 0.00 82 1010.6
20260507084544 31 252 0.0 1.0 0.00 0.00 0.00 82 1010.6
20260507084033 31 252 0.0 1.0 0.00 0.00 0.00 81 1010.6
20260507083800 32 252 0.0 1.0 0.00 0.00 0.00 81 1010.6
20260507083022 32 252 0.0 1.0 0.00 0.00 0.00 81 1010.6
20260507082735 32 252 0.0 2.0 0.00 0.00 0.00 81 1010.6
20260507082003 32 252 1.0 3.0 0.00 0.00 0.00 81 1010.6
20260507081502 32 252 1.0 3.0 0.00 0.00 0.00 81 1010.7
20260507081001 31 252 0.0 3.0 0.00 0.00 0.00 81 1010.7
20260507080454 32 252 0.0 1.0 0.00 0.00 0.00 80 1010.7
20260507075937 32 253 0.0 1.0 0.00 0.00 0.00 80 1010.6
20260507075921 32 253 0.0 1.0 0.00 0.00 0.00 79 1010.6
20260507074915 32 253 0.0 1.0 0.00 0.00 0.00 79 1010.6
20260507074414 32 253 0.0 0.0 0.00 0.00 0.00 79 1010.6
20260507073912 32 253 0.0 0.0 0.00 0.00 0.00 78 1010.6
20260507073345 32 253 0.0 0.0 0.00 0.00 0.00 78 1010.6
20260507072842 33 253 0.0 0.0 0.00 0.00 0.00 78 1010.7
20260507072335 33 253 0.0 0.0 0.00 0.00 0.00 78 1010.7
20260507071835 33 253 0.0 0.0 0.00 0.00 0.00 77 1010.9
20260507071306 33 253 0.0 0.0 0.00 0.00 0.00 77 1011.0
20260507070803 33 253 0.0 0.0 0.00 0.00 0.00 77 1011.0
20260507070255 34 253 0.0 0.0 0.00 0.00 0.00 76 1011.1
20260507065743 34 253 0.0 0.0 0.00 0.00 0.00 76 1011.2
20260507065228 34 253 0.0 0.0 0.00 0.00 0.00 76 1011.2
20260507064721 35 253 0.0 0.0 0.00 0.00 0.00 75 1011.2
20260507064154 35 253 0.0 0.0 0.00 0.00 0.00 75 1011.2
20260507063647 35 253 0.0 0.0 0.00 0.00 0.00 74 1011.2
20260507063138 35 253 0.0 0.0 0.00 0.00 0.00 74 1011.3
20260507062903 36 253 0.0 0.0 0.00 0.00 0.00 73 1011.3
20260507062132 36 253 0.0 0.0 0.00 0.00 0.00 73 1011.3
20260507061622 36 253 0.0 0.0 0.00 0.00 0.00 72 1011.5
20260507061339 37 253 0.0 0.0 0.00 0.00 0.00 72 1011.3
20260507060605 37 253 0.0 0.0 0.00 0.00 0.00 71 1011.5
20260507060055 37 253 0.0 0.0 0.00 0.00 0.00 71 1011.5
20260507055551 37 253 0.0 0.0 0.00 0.00 0.00 70 1011.5
20260507055049 38 253 0.0 0.0 0.00 0.00 0.00 70 1011.6
20260507054545 38 253 0.0 1.0 0.00 0.00 0.00 69 1011.7
20260507054036 38 253 0.0 2.0 0.00 0.00 0.00 68 1011.7
20260507053526 39 253 0.0 2.0 0.00 0.00 0.00 68 1011.7
20260507053019 40 253 0.0 0.0 0.00 0.00 0.00 67 1011.7
20260507052455 40 253 0.0 0.0 0.00 0.00 0.00 65 1011.7
20260507052212 40 253 0.0 0.0 0.00 0.00 0.00 65 1011.7
20260507051631 40 253 0.0 0.0 0.00 0.00 0.00 64 1011.7
20260507050912 40 253 0.0 2.0 0.00 0.00 0.00 65 1011.7
20260507050346 41 253 0.0 2.0 0.00 0.00 0.00 63 1011.8
20260507045846 41 253 0.0 2.0 0.00 0.00 0.00 63 1011.9
20260507045341 41 253 0.0 2.0 0.00 0.00 0.00 63 1011.9
20260507045048 41 253 1.0 2.0 0.00 0.00 0.00 64 1011.9
20260507044322 41 253 1.0 2.0 0.00 0.00 0.00 64 1011.9
20260507043821 41 253 1.0 2.0 0.00 0.00 0.00 65 1011.9
20260507043312 41 253 0.0 2.0 0.00 0.00 0.00 62 1011.9
20260507042813 41 253 0.0 1.0 0.00 0.00 0.00 63 1012.0
20260507042313 41 253 0.0 1.0 0.00 0.00 0.00 63 1011.9
20260507041806 41 253 0.0 2.0 0.00 0.00 0.00 63 1012.0
20260507041257 41 253 0.0 2.0 0.00 0.00 0.00 62 1012.1
20260507041230 41 253 1.0 2.0 0.00 0.00 0.00 60 1012.1
20260507040237 41 253 1.0 2.0 0.00 0.00 0.00 61 1012.1
20260507035732 41 253 1.0 2.0 0.00 0.00 0.00 61 1012.1
20260507035224 41 253 0.0 2.0 0.00 0.00 0.00 61 1012.2
20260507034722 41 253 1.0 3.0 0.00 0.00 0.00 60 1012.1
20260507034441 41 253 1.0 3.0 0.00 0.00 0.00 60 1012.2
20260507033720 42 253 1.0 3.0 0.00 0.00 0.00 61 1012.2
20260507033220 42 253 1.0 3.0 0.00 0.00 0.00 61 1012.2
20260507032709 42 253 1.0 2.0 0.00 0.00 0.00 60 1012.2
20260507032208 42 253 1.0 2.0 0.00 0.00 0.00 61 1012.2
20260507031709 42 253 1.0 2.0 0.00 0.00 0.00 59 1012.2
20260507031155 43 253 0.0 2.0 0.00 0.00 0.00 59 1012.2
20260507030647 43 253 0.0 2.0 0.00 0.00 0.00 58 1012.2
20260507030411 43 253 0.0 1.0 0.00 0.00 0.00 58 1012.3
20260507025633 43 253 1.0 3.0 0.00 0.00 0.00 57 1012.2
20260507025131 43 253 1.0 4.0 0.00 0.00 0.00 56 1012.3
20260507024633 43 253 1.0 4.0 0.00 0.00 0.00 56 1012.4
20260507024117 43 255 1.0 4.0 0.00 0.00 0.00 56 1012.3
20260507023612 44 255 0.0 3.0 0.00 0.00 0.00 56 1012.3
20260507023329 44 255 0.0 1.0 0.00 0.00 0.00 55 1012.3
20260507022611 44 255 0.0 2.0 0.00 0.00 0.00 54 1012.3
20260507022112 44 255 0.0 2.0 0.00 0.00 0.00 54 1012.4
20260507021605 44 255 0.0 4.0 0.00 0.00 0.00 54 1012.4
20260507021110 44 255 1.0 4.0 0.00 0.00 0.00 54 1012.4
20260507020827 44 255 1.0 4.0 0.00 0.00 0.00 54 1012.4
20260507020059 44 255 1.0 4.0 0.00 0.00 0.00 53 1012.3
20260507015559 44 256 1.0 3.0 0.00 0.00 0.00 53 1012.3
20260507015056 44 255 2.0 5.0 0.00 0.00 0.00 53 1012.2
20260507014542 44 254 2.0 7.0 0.00 0.00 0.00 53 1012.2
20260507014044 44 301 2.0 7.0 0.00 0.00 0.00 52 1012.2
20260507013545 44 281 2.0 6.0 0.00 0.00 0.00 53 1012.3
20260507013041 45 327 2.0 7.0 0.00 0.00 0.00 53 1012.2
20260507012540 45 266 3.0 9.0 0.00 0.00 0.00 52 1012.2
20260507012041 45 253 3.0 9.0 0.00 0.00 0.00 52 1012.3
20260507011755 45 277 3.0 11.0 0.00 0.00 0.00 52 1012.2
20260507011258 45 264 3.0 11.0 0.00 0.00 0.00 52 1012.3
20260507011006 45 260 2.0 9.0 0.00 0.00 0.00 52 1012.3
20260507010254 45 277 1.0 5.0 0.00 0.00 0.00 53 1012.3
20260507005522 45 236 1.0 5.0 0.00 0.00 0.00 52 1012.3
20260507005017 45 275 1.0 4.0 0.00 0.00 0.00 51 1012.3
20260507004518 45 285 1.0 4.0 0.00 0.00 0.00 52 1012.3
20260507004018 45 285 2.0 5.0 0.00 0.00 0.00 51 1012.3
20260507003519 45 264 2.0 5.0 0.00 0.00 0.00 51 1012.3
20260507003012 45 297 2.0 7.0 0.00 0.00 0.00 50 1012.3
20260507002739 45 275 2.0 7.0 0.00 0.00 0.00 50 1012.4
20260507002013 45 311 2.0 6.0 0.00 0.00 0.00 51 1012.4
20260507002006 45 321 2.0 5.0 0.00 0.00 0.00 51 1012.5
20260507001230 45 302 2.0 5.0 0.00 0.00 0.00 51 1012.4
20260507000510 45 293 2.0 8.0 0.00 0.00 0.00 50 1012.5
20260507000010 45 315 3.0 8.0 0.00 0.00 0.00 50 1012.5
20260506235506 45 300 3.0 7.0 0.00 0.00 0.00 50 1012.5
20260506235006 45 302 2.0 7.0 0.00 0.00 0.00 50 1012.5
20260506234727 45 5 2.0 8.0 0.00 0.00 0.00 50 1012.5
20260506234005 45 236 3.0 8.0 0.00 0.00 0.00 50 1012.6
20260506233506 46 292 3.0 9.0 0.00 0.00 0.00 50 1012.6
20260506233000 46 262 3.0 9.0 0.00 0.00 0.00 51 1012.7
20260506232453 46 290 3.0 9.0 0.00 0.00 0.00 51 1012.7
20260506231949 46 279 3.0 11.0 0.00 0.00 0.00 51 1012.7
20260506231707 46 263 3.0 11.0 0.00 0.00 0.00 52 1012.7
20260506230947 46 217 2.0 7.0 0.00 0.00 0.00 51 1012.7
20260506230447 46 254 3.0 9.0 0.00 0.00 0.00 51 1012.7
20260506230435 46 325 3.0 9.0 0.00 0.00 0.00 51 1012.7
20260506225440 46 268 3.0 10.0 0.00 0.00 0.00 51 1012.7
20260506224943 46 220 3.0 10.0 0.00 0.00 0.00 51 1012.8
20260506224439 46 299 2.0 8.0 0.00 0.00 0.00 51 1012.8
20260506224157 46 295 2.0 8.0 0.00 0.00 0.00 50 1012.8
20260506223437 46 275 2.0 8.0 0.00 0.00 0.00 50 1012.8
20260506222931 46 240 3.0 10.0 0.00 0.00 0.00 51 1012.8
20260506222430 46 279 3.0 10.0 0.00 0.00 0.00 51 1012.8
20260506221930 46 283 3.0 9.0 0.00 0.00 0.00 52 1012.8
20260506221428 46 302 3.0 10.0 0.00 0.00 0.00 51 1012.8
20260506220926 46 340 3.0 10.0 0.00 0.00 0.00 51 1012.9
20260506220426 46 221 4.0 11.0 0.00 0.00 0.00 51 1012.9
20260506215923 46 229 4.0 11.0 0.00 0.00 0.00 51 1012.9
20260506215421 45 233 4.0 10.0 0.00 0.00 0.00 52 1012.9
20260506214919 45 224 4.0 10.0 0.00 0.00 0.00 52 1013.0
20260506214419 45 263 3.0 7.0 0.00 0.00 0.00 52 1013.0
20260506213919 45 290 3.0 10.0 0.00 0.00 0.00 52 1013.1
20260506213416 45 265 4.0 11.0 0.00 0.00 0.00 52 1013.2
20260506213132 45 301 4.0 11.0 0.00 0.00 0.00 52 1013.1
20260506212635 45 294 3.0 9.0 0.00 0.00 0.00 52 1013.2
20260506211915 45 277 2.0 8.0 0.00 0.00 0.00 52 1013.2
20260506211414 45 269 3.0 15.0 0.00 0.00 0.00 53 1013.2
20260506210915 45 350 4.0 15.0 0.00 0.00 0.00 52 1013.2
20260506210412 45 286 4.0 11.0 0.00 0.00 0.00 52 1013.3
20260506205906 45 294 3.0 10.0 0.00 0.00 0.00 52 1013.3
20260506205402 45 317 3.0 11.0 0.00 0.00 0.00 53 1013.3
20260506204859 45 262 4.0 11.0 0.00 0.00 0.00 53 1013.4
20260506204400 45 288 3.0 10.0 0.00 0.00 0.00 56 1013.4
20260506203853 44 315 3.0 10.0 0.00 0.00 0.00 55 1013.4
20260506203351 44 208 3.0 10.0 0.00 0.00 0.00 53 1013.4
20260506202850 44 251 3.0 11.0 0.00 0.00 0.00 54 1013.4
20260506202353 44 273 4.0 11.0 0.00 0.00 0.00 53 1013.5
20260506201852 44 246 3.0 9.0 0.00 0.00 0.00 54 1013.5
20260506201607 44 298 4.0 12.0 0.00 0.00 0.00 53 1013.5
20260506200847 44 265 4.0 12.0 0.00 0.00 0.00 54 1013.4
20260506200611 44 271 4.0 10.0 0.00 0.00 0.00 54 1013.5
20260506195841 44 304 4.0 10.0 0.00 0.00 0.00 54 1013.5
20260506195342 44 283 4.0 9.0 0.00 0.00 0.00 54 1013.5
20260506195055 44 292 3.0 12.0 0.00 0.00 0.00 54 1013.5
20260506194334 44 286 3.0 12.0 0.00 0.00 0.00 54 1013.6
20260506193832 44 265 3.0 7.0 0.00 0.00 0.00 54 1013.5
20260506193323 44 293 4.0 9.0 0.00 0.00 0.00 54 1013.6
20260506192827 44 302 5.0 11.0 0.00 0.00 0.00 55 1013.6
20260506192538 44 326 3.0 13.0 0.00 0.00 0.00 56 1013.6
20260506192038 44 351 2.0 13.0 0.00 0.00 0.00 54 1013.7
20260506191316 43 242 4.0 14.0 0.00 0.00 0.00 55 1013.7
20260506190815 43 295 4.0 14.0 0.00 0.00 0.00 55 1013.7
20260506190310 43 302 4.0 9.0 0.00 0.00 0.00 55 1013.7
20260506190253 43 296 4.0 10.0 0.00 0.00 0.00 56 1013.7
20260506185307 43 292 3.0 10.0 0.00 0.00 0.00 55 1013.7
20260506184802 43 268 3.0 16.0 0.00 0.00 0.00 55 1013.8
20260506184531 43 302 4.0 16.0 0.00 0.00 0.00 56 1013.7
20260506183747 43 236 5.0 16.0 0.00 0.00 0.00 55 1013.7
20260506183243 43 267 5.0 16.0 0.00 0.00 0.00 56 1013.7
20260506182745 43 327 4.0 12.0 0.00 0.00 0.00 56 1013.8
20260506182240 43 290 4.0 16.0 0.00 0.00 0.00 56 1013.8
20260506181734 43 322 4.0 16.0 0.00 0.00 0.00 58 1013.8
20260506181234 42 252 4.0 12.0 0.00 0.00 0.00 57 1013.9
20260506180734 43 285 3.0 11.0 0.00 0.00 0.00 57 1013.9